Regional Weather Roundup
Issued by NWS

Home | Current Version | Previous Version | Text Only | Print | Product List | Glossary Off
Versions: 1 2 3 4 5 6 7 8 9 10 11 12 13 14 15 16 17 18 19 20 21 22 23 24 25 26 27 28 29 30 31 32 33 34 35 36 37 38 39 40 41 42 43 44 45 46 47 48 49 50

000
ASUS43 KLSX 011610
RWRMO

WEATHER SUMMARY FOR MISSOURI
NATIONAL WEATHER SERVICE SPRINGFIELD MO
1100 AM CDT SUN MAY 01 2016

NOTE: "FAIR" INDICATES FEW OR NO CLOUDS BELOW 12,000 FEET WITH NO
       SIGNIFICANT WEATHER AND/OR OBSTRUCTIONS TO VISIBILITY.
       CURRENT SKY AND/OR WEATHER CONDITIONS ARE NOT AVAILABLE FOR
       CHILLICOTHE AND FARMINGTON.

MOZ001>031-035>038-043-044-053-054-011700-
...NORTHERN AND WESTERN MISSOURI...

CITY           SKY/WX    TMP DP  RH WIND       PRES   REMARKS
KANSAS CTY INT CLOUDY    58  49  72 NW10      29.99R
KANSAS C DTWN  CLOUDY    60  45  57 NW10      29.98R
LEE`S SUMMIT   PTSUNNY   58  41  53 W10G18    29.99R
ST JOSEPH      CLOUDY    52  49  89 N10       30.00R
CHILLICOTHE      N/A     54  51  90 CALM      29.98R
KIRKSVILLE     LGT RAIN  52  49  89 E8        29.97S

$$
MOZ066>068-077>081-088>096-101>105-011700-
...SOUTHWEST MISSOURI...

CITY           SKY/WX    TMP DP  RH WIND       PRES   REMARKS
SPRINGFIELD    SUNNY     62  41  46 W10       30.00S
JOPLIN         MOSUNNY   60  46  59 W12       30.03R
BRANSON        SUNNY     63  45  51 NW8       30.02R

$$
MOZ032>034-039>042-045>050-055>058-069>072-011700-
...CENTRAL MISSOURI...

CITY           SKY/WX    TMP DP  RH WIND       PRES   REMARKS
COLUMBIA       MOSUNNY   64  54  69 SW9       29.95S
JEFFERSON CITY MOSUNNY   65  51  60 SW13      29.96R
ROLLA          SUNNY     65  50  58 W13G20    29.95R
SEDALIA        MOSUNNY   61  46  57 W14       29.98S
WHITEMAN AFB   PTSUNNY   60  42  51 W15       29.97R
WARRENSBURG    MOSUNNY   59  41  51 W12G18    29.99R
OSAGE BEACH    MOSUNNY   63  43  48 W12       29.99R

$$
MOZ051-052-059>065-011700-
...EAST CENTRAL MISSOURI...

CITY           SKY/WX    TMP DP  RH WIND       PRES   REMARKS
ST LOUIS INTL  CLOUDY    63  57  81 NW8       29.95R
SPIRIT OF STL  CLOUDY    64  58  80 CALM      29.94R
ST CHARLES     CLOUDY    61  58  90 N8        29.94R

$$
MOZ072>076-082>087-097>100-106>115-011700-
...SOUTH CENTRAL AND SOUTHEAST MISSOURI...

CITY           SKY/WX    TMP DP  RH WIND       PRES   REMARKS
CAPE GIRARDEAU CLOUDY    71  62  73 W8        29.93R
FARMINGTON     SUNNY     68  57  68 W6        29.95R
POPLAR BLUFF   MOSUNNY   72  62  71 NW6       29.93R
WEST PLAINS    SUNNY     66  52  60 NW10      29.99R

$$




USA.gov is the U.S. government's official web portal to all federal, state and local government web resources and services.